• In Netherlands
  • List of Countries
  • For 7 days
  • Water Temperature
  • Satellite Maps
  • Weather Map
  • Weather Widgets
  • user-avatar
    Login

    Hourly Weather Stepanakert

    Today, 21 May, Monday

    Time Temperature Precipitation Wind Pressure Humidity
    00:00 +19°C° 0 mm 1 mps 693 mmHg 70%
    01:00 +18°C° 0 mm 1 mps 693 mmHg 70%
    02:00 +18°C° 0 mm 1 mps 693 mmHg 70%
    03:00 +18°C° 0 mm 1 mps 693 mmHg 70%
    04:00 +18°C° 0 mm 1 mps 693 mmHg 69%
    05:00 +19°C° 0 mm 1 mps 693 mmHg 68%
    06:00 +19°C° 0 mm 1 mps 693 mmHg 67%
    07:00 +20°C° 0 mm 2 mps 694 mmHg 60%
    08:00 +21°C° 0 mm 2 mps 694 mmHg 54%
    09:00 +24°C° 0 mm 2 mps 694 mmHg 48%
    10:00 +25°C° 0.2 mm 2 mps 694 mmHg 46%
    11:00 +25°C° 0.2 mm 3 mps 694 mmHg 44%
    12:00 +26°C° 0.2 mm 3 mps 694 mmHg 42%
    13:00 +26°C° 0.3 mm 2 mps 694 mmHg 43%
    14:00 +26°C° 0.3 mm 2 mps 693 mmHg 43%
    15:00 +26°C° 0.3 mm 2 mps 693 mmHg 43%
    16:00 +26°C° 0.5 mm 2 mps 693 mmHg 47%
    17:00 +25°C° 0.5 mm 2 mps 693 mmHg 51%
    18:00 +24°C° 0.5 mm 1 mps 693 mmHg 55%
    19:00 +23°C° 0.1 mm 2 mps 694 mmHg 58%
    20:00 +21°C° 0.1 mm 2 mps 694 mmHg 60%
    21:00 +19°C° 0.1 mm 2 mps 694 mmHg 63%
    22:00 +19°C° 0 mm 2 mps 694 mmHg 63%
    23:00 +19°C° 0 mm 2 mps 694 mmHg 63%

    Tomorrow, 22 May, Tuesday

    Time Temperature Precipitation Wind Pressure Humidity
    00:00 +19°C° 0 mm 1 mps 694 mmHg 64%
    01:00 +19°C° 0 mm 1 mps 694 mmHg 65%
    02:00 +18°C° 0 mm 2 mps 694 mmHg 66%
    03:00 +17°C° 0 mm 2 mps 694 mmHg 67%
    04:00 +19°C° 0 mm 1 mps 694 mmHg 67%
    05:00 +19°C° 0 mm 1 mps 694 mmHg 68%
    06:00 +19°C° 0 mm 1 mps 695 mmHg 68%
    07:00 +20°C° 0 mm 2 mps 695 mmHg 62%
    08:00 +21°C° 0 mm 2 mps 695 mmHg 56%
    09:00 +23°C° 0 mm 2 mps 696 mmHg 50%
    10:00 +24°C° 0 mm 2 mps 696 mmHg 47%
    11:00 +25°C° 0 mm 3 mps 696 mmHg 44%
    12:00 +26°C° 0 mm 3 mps 696 mmHg 41%
    13:00 +26°C° 0.1 mm 3 mps 696 mmHg 41%
    14:00 +26°C° 0.1 mm 3 mps 696 mmHg 40%
    15:00 +27°C° 0.1 mm 3 mps 695 mmHg 39%
    16:00 +26°C° 0 mm 3 mps 695 mmHg 42%
    17:00 +25°C° 0 mm 2 mps 695 mmHg 45%
    18:00 +24°C° 0 mm 2 mps 695 mmHg 48%
    19:00 +23°C° 0 mm 2 mps 695 mmHg 50%
    20:00 +20°C° 0 mm 2 mps 696 mmHg 53%
    21:00 +19°C° 0 mm 2 mps 696 mmHg 55%
    22:00 +18°C° 0 mm 2 mps 696 mmHg 53%
    23:00 +18°C° 0 mm 2 mps 695 mmHg 52%

    Day after tomorrow, 23 May, Wednesday

    Time Temperature Precipitation Wind Pressure Humidity
    00:00 +17°C° 0 mm 2 mps 695 mmHg 50%
    01:00 +17°C° 0 mm 2 mps 695 mmHg 47%
    02:00 +17°C° 0 mm 2 mps 695 mmHg 44%
    03:00 +16°C° 0 mm 2 mps 695 mmHg 42%
    04:00 +17°C° 0 mm 2 mps 695 mmHg 43%
    05:00 +17°C° 0 mm 2 mps 695 mmHg 44%
    06:00 +18°C° 0 mm 2 mps 696 mmHg 45%
    07:00 +20°C° 0 mm 2 mps 696 mmHg 40%
    08:00 +21°C° 0 mm 2 mps 696 mmHg 36%
    09:00 +24°C° 0 mm 2 mps 697 mmHg 32%
    10:00 +25°C° 0 mm 2 mps 696 mmHg 31%
    11:00 +26°C° 0 mm 2 mps 696 mmHg 29%
    12:00 +27°C° 0 mm 3 mps 696 mmHg 28%
    13:00 +27°C° 0 mm 3 mps 696 mmHg 29%
    14:00 +28°C° 0 mm 3 mps 695 mmHg 29%
    15:00 +28°C° 0 mm 3 mps 695 mmHg 30%
    16:00 +27°C° 0 mm 3 mps 695 mmHg 33%
    17:00 +26°C° 0 mm 2 mps 694 mmHg 37%
    18:00 +25°C° 0 mm 2 mps 694 mmHg 41%
    19:00 +23°C° 0 mm 2 mps 694 mmHg 42%
    20:00 +20°C° 0 mm 2 mps 694 mmHg 44%
    21:00 +18°C° 0 mm 3 mps 694 mmHg 45%
    22:00 +18°C° 0 mm 3 mps 694 mmHg 45%
    23:00 +17°C° 0 mm 3 mps 694 mmHg 45%

    24 May, Thursday

    Time Temperature Precipitation Wind Pressure Humidity
    00:00 +17°C° 0 mm 3 mps 693 mmHg 46%
    01:00 +16°C° 0 mm 2 mps 693 mmHg 44%
    02:00 +16°C° 0 mm 2 mps 693 mmHg 43%
    03:00 +16°C° 0 mm 2 mps 692 mmHg 41%
    04:00 +16°C° 0 mm 2 mps 692 mmHg 42%
    05:00 +17°C° 0 mm 2 mps 693 mmHg 42%
    06:00 +17°C° 0 mm 2 mps 693 mmHg 42%
    07:00 +19°C° 0 mm 2 mps 693 mmHg 37%
    08:00 +22°C° 0 mm 1 mps 693 mmHg 32%
    09:00 +24°C° 0 mm 1 mps 693 mmHg 27%
    10:00 +25°C° 0 mm 2 mps 693 mmHg 26%
    11:00 +26°C° 0 mm 2 mps 693 mmHg 25%
    12:00 +27°C° 0 mm 3 mps 692 mmHg 25%
    13:00 +27°C° 0 mm 3 mps 692 mmHg 26%
    14:00 +27°C° 0 mm 3 mps 692 mmHg 27%
    15:00 +27°C° 0 mm 3 mps 691 mmHg 28%
    16:00 +26°C° 0 mm 3 mps 691 mmHg 32%
    17:00 +25°C° 0 mm 3 mps 691 mmHg 36%
    18:00 +24°C° 0 mm 3 mps 690 mmHg 41%
    19:00 +21°C° 0 mm 2 mps 690 mmHg 44%
    20:00 +19°C° 0 mm 2 mps 690 mmHg 48%
    21:00 +17°C° 0 mm 2 mps 690 mmHg 51%
    22:00 +17°C° 0 mm 3 mps 690 mmHg 50%
    23:00 +16°C° 0 mm 3 mps 690 mmHg 48%

    25 May, Friday

    Time Temperature Precipitation Wind Pressure Humidity
    00:00 +16°C° 0 mm 3 mps 690 mmHg 47%
    01:00 +16°C° 0 mm 3 mps 689 mmHg 46%
    02:00 +14°C° 0 mm 3 mps 689 mmHg 44%
    03:00 +15°C° 0 mm 2 mps 689 mmHg 43%
    04:00 +16°C° 0 mm 2 mps 689 mmHg 43%
    05:00 +16°C° 0 mm 2 mps 689 mmHg 43%
    06:00 +17°C° 0 mm 2 mps 690 mmHg 43%
    07:00 +19°C° 0 mm 2 mps 690 mmHg 39%
    08:00 +21°C° 0 mm 2 mps 690 mmHg 35%
    09:00 +24°C° 0 mm 2 mps 690 mmHg 30%
    10:00 +25°C° 0 mm 2 mps 690 mmHg 29%
    11:00 +26°C° 0 mm 2 mps 690 mmHg 27%
    12:00 +27°C° 0 mm 3 mps 690 mmHg 26%
    13:00 +28°C° 0 mm 3 mps 689 mmHg 26%
    14:00 +28°C° 0 mm 3 mps 689 mmHg 26%
    15:00 +28°C° 0 mm 3 mps 689 mmHg 26%
    16:00 +27°C° 0 mm 3 mps 689 mmHg 30%
    17:00 +26°C° 0 mm 2 mps 689 mmHg 33%
    18:00 +26°C° 0 mm 2 mps 689 mmHg 37%
    19:00 +23°C° 0 mm 2 mps 689 mmHg 39%
    20:00 +20°C° 0 mm 2 mps 689 mmHg 42%
    21:00 +18°C° 0 mm 2 mps 689 mmHg 44%
    22:00 +18°C° 0 mm 2 mps 689 mmHg 44%
    23:00 +17°C° 0 mm 2 mps 689 mmHg 44%

    26 May, Saturday

    Time Temperature Precipitation Wind Pressure Humidity
    00:00 +17°C° 0 mm 2 mps 689 mmHg 44%
    01:00 +17°C° 0 mm 2 mps 689 mmHg 44%
    02:00 +16°C° 0 mm 2 mps 689 mmHg 44%
    03:00 +16°C° 0 mm 2 mps 689 mmHg 45%
    04:00 +17°C° 0 mm 2 mps 690 mmHg 46%
    05:00 +18°C° 0 mm 2 mps 690 mmHg 46%
    06:00 +18°C° 0 mm 2 mps 691 mmHg 47%
    07:00 +20°C° 0 mm 2 mps 691 mmHg 42%
    08:00 +23°C° 0 mm 2 mps 692 mmHg 38%
    09:00 +25°C° 0 mm 2 mps 692 mmHg 33%
    10:00 +26°C° 0 mm 2 mps 692 mmHg 32%
    11:00 +27°C° 0 mm 3 mps 692 mmHg 31%
    12:00 +28°C° 0 mm 3 mps 692 mmHg 29%
    13:00 +28°C° 0 mm 3 mps 692 mmHg 30%
    14:00 +28°C° 0 mm 3 mps 692 mmHg 30%
    15:00 +28°C° 0 mm 4 mps 692 mmHg 31%
    16:00 +27°C° 0 mm 4 mps 692 mmHg 35%
    17:00 +26°C° 0 mm 4 mps 692 mmHg 38%
    18:00 +25°C° 0 mm 4 mps 692 mmHg 42%
    19:00 +22°C° 0 mm 3 mps 693 mmHg 46%
    20:00 +20°C° 0 mm 3 mps 693 mmHg 50%
    21:00 +18°C° 0 mm 3 mps 693 mmHg 54%
    22:00 +18°C° 0 mm 3 mps 694 mmHg 54%
    23:00 +17°C° 0 mm 2 mps 694 mmHg 55%
    Show more